Weather in Eureka

United States     40°46′51″N   124°09′21″W
temp.,
°C
wind,
m/s
gust,
m/s
humid.,
%
clouds,
%
prec.,
mm/h
press.,
hPa
HPBL,
m
16 may, sun
sun1623:00+8se22932 0.0 101333
02:00+8wsw229425 0.0 101245
05:00+8sse229622 0.0 101253
08:00+9n118944 0.0 1014133
11:00+11nw448438 0.0 1014233
14:00+12nw448134 0.0 1014257
17:00+11nnw458636 0.0 1014300
20:00+10n4690100 0.1 1015258
17 may, mon
mon1723:00+10nne1294100 0.3 1017112
02:00+10w2395100 0.2 101775
05:00+9nnw2395100 0.3 1017143
08:00+10nnw2491100 0.1 1018210
11:00+11nw568478 0.1 1019331
14:00+11nnw478397 0.0 1020319
17:00+11n4583100 0.0 1020280
20:00+10ne2393100 0.0 102161
18 may, tue
tue1823:00+8e229689 0.0 102138
02:00+8ene129437 0.0 102118
05:00+9n3595100 0.1 1022140
08:00+10n579199 0.1 1022312
11:00+10nnw578023 0.1 1022427
14:00+11n61075100 0.0 1022490
17:00+10n598195 0.0 1021433
20:00+9n51187100 0.0 1021481
19 may, wed
wed1923:00+9n51090100 0.0 1021465
02:00+8n4989100 0.0 1020441
05:00+8n6128937 0.0 1020708
08:00+9n611833 0.0 1020793
11:00+10nnw711773 0.0 1020754
14:00+10nnw610730 0.0 1019717
17:00+10n711760 0.0 1019783
20:00+9n610840 0.0 1018667
20 may, thu
thu2023:00+9n7128521 0.1 1019799
02:00+9nnw10148212 0.1 1018958
05:00+8n9138410 0.1 1018949
08:00+9n813805 0.0 1019923
11:00+10nnw914751 0.0 1020875
14:00+10nnw913740 0.0 1020848
17:00+10nnw814790 0.0 1020916
20:00+9n8148652 0.1 1020811